Simultaneous Nadir Overpasses (SNOs) Predictions

Prediction of SNOs between LANDSAT-8 and METOP-A Satellite Orbit:

Table of predicted SNOs for the next 14.0 days since TLE Epoch: 11/27/2015
Index Date (LANDSAT-8) Time (LANDSAT-8) Lat,Lon (LANDSAT-8) SZA (LANDSAT-8 ) Date (METOP-A) Time (METOP-A) Lat,Lon (METOP-A) SZA (METOP-A ) Distance(km) Time Diff (sec)
1 11/27/2015 19:53:13 81.09, -78.84 104.47 11/27/2015 19:52:17 81.10, -78.82 104.45 0.78 56
2 11/27/2015 20:42:38 -81.14, 89.44 75.44 11/27/2015 20:42:56 -81.13, 89.40 75.44 0.95 18
3 11/30/2015 15:27:27 81.12, -12.03 104.98 11/30/2015 15:26:41 81.11, -12.13 104.94 1.96 46
4 11/30/2015 16:16:53 -81.14, 155.91 74.98 11/30/2015 16:17:21 -81.13, 155.74 74.99 3.20 28
5 12/03/2015 11:01:41 81.11, 54.33 105.36 12/03/2015 11:01:04 81.12, 54.52 105.37 3.31 37
6
